Wind_Speed
12 10 7 6 7 7 7 6 6 6 8 9 9 9 8 7 7 9 11 14 14 14 12 12 10 17 19 19 17 19 23 23 21 19 19 19 18 17 16 15 14 11 12
14 11 8 6 8 7 8 8 7 7 8 9 11 11 11 12 11 13 14 15 15 15 15 16 16 16 15 15 16 18 19 20 20 18 17 18 18 22 12 14 15 15 15
14 11 9 8 8 10 10 8 8 10 10 9 10 12 12 11 12 15 16 15 17 16 15 14 18 17 17 18 18 17 17 17 17 18 19 19 19 18 19 16 14 15 16
13 10 8 9 9 12 13 12 11 12 11 11 11 12 12 12 11 13 17 19 18 17 19 17 16 16 17 17 17 15 16 17 17 18 18 21 26 26 22 20 13 11 14
13 8 8 8 11 14 14 13 16 16 16 16 15 15 14 12 12 11 10 11 13 13 14 18 15 17 17 17 16 15 16 16 16 16 13 16 12 12 20 17 14 17 13
12 9 12 9 10 14 15 15 14 13 16 20 19 19 17 15 14 12 13 10 12 13 14 16 15 14 15 17 16 16 16 16 16 16 16 15 13 13 13 16 17 17 12
6 8 11 11 15 17 19 23 17 17 15 17 20 20 20 19 17 14 11 12 10 13 12 17 13 14 14 14 16 15 15 16 16 15 15 14 15 17 17 15 17 17 16
14 18 18 15 23 24 25 28 36 35 37 20 34 28 24 25 22 18 13 11 12 10 10 13 18 15 14 15 14 14 13 14 14 15 14 13 13 14 14 18 21 21 22
24 19 21 19 24 26 29 33 35 35 36 32 27 31 35 29 26 22 17 12 10 9 9 8 11 15 17 13 11 11 12 13 13 13 14 14 14 14 15 16 15 16 17
20 21 23 26 28 29 32 33 35 32 34 36 29 35 39 33 30 24 20 15 12 9 8 9 13 17 17 14 12 13 12 15 15 15 15 15 15 14 15 16 17 18 17
25 24 26 27 30 30 31 33 31 34 33 32 31 31 40 37 32 27 22 19 15 12 10 11 12 17 16 14 15 14 14 15 16 17 16 16 17 17 18 18 18 18 18
26 26 27 27 30 33 34 32 34 34 35 35 31 28 38 37 31 28 22 20 17 15 12 12 13 15 17 17 16 17 17 17 16 17 18 19 19 18 18 18 18 17 17
28 30 32 32 32 34 34 36 35 34 34 37 33 35 40 35 30 26 22 21 18 19 17 15 15 15 16 17 17 16 14 16 19 17 18 18 19 18 17 16 15 14 13
30 33 37 38 38 35 36 37 34 30 28 27 26 29 36 34 31 25 19 21 20 21 20 18 17 16 18 19 20 18 15 16 16 17 19 19 18 17 17 16 14 13 13
33 35 39 39 37 34 33 32 26 23 18 15 15 23 29 32 31 29 24 23 21 22 21 20 18 17 19 20 21 21 19 20 21 20 20 21 20 19 18 19 19 19 20
29 30 32 25 27 21 22 20 19 19 14 10 12 22 29 25 26 25 28 31 24 21 20 20 18 18 18 20 21 22 24 22 21 24 23 21 22 22 20 22 26 29 27
22 21 20 19 18 16 16 17 20 21 15 14 16 19 21 23 23 23 23 21 23 21 19 18 16 15 17 17 17 22 22 23 25 26 27 27 27 24 23 27 25 31 31
18 17 13 14 21 15 16 16 19 20 22 17 17 20 21 24 27 24 22 21 19 17 17 16 13 12 12 12 12 13 14 15 16 15 15 17 17 20 21 22 20 20 19
18 19 13 11 11 20 15 20 19 17 23 26 23 26 27 28 25 22 19 17 15 13 12 11 11 11 11 11 11 12 12 13 14 15 15 14 14 15 17 18 19 21 22
16 14 13 9 3 3 3 5 8 12 15 16 21 26 32 24 21 24 16 15 14 11 11 12 12 10 9 9 11 12 13 13 14 16 18 19 20 21 22 23 25 26 27
17 14 10 10 12 10 5 6 3 4 6 5 9 14 16 15 14 19 26 20 13 11 12 10 6 5 8 11 12 14 13 14 15 16 19 22 22 21 22 21 20 19 19
14 12 9 7 4 5 4 3 3 5 7 8 8 4 14 14 13 20 14 10 8 9 8 7 9 12 12 12 13 13 13 13 13 13 13 14 13 12 13 14 16 16 16
11 9 7 7 4 1 3 3 5 1 5 7 11 17 20 6 17 10 17 10 15 14 7 10 14 14 11 10 10 9 8 8 8 8 9 11 12 13 14 14 16 17 17
8 7 6 6 6 6 6 5 3 3 7 13 11 7 8 8 8 8 13 10 12 12 11 14 13 10 7 6 6 6 7 8 9 10 9 9 11 12 14 15 15 16 17
7 8 5 6 6 6 8 9 8 6 4 5 6 5 6 15 13 12 7 7 9 12 12 10 7 7 7 8 8 8 9 8 7 8 9 9 10 11 13 14 15 16 18
6 7 4 5 6 5 8 6 6 6 6 5 5 8 11 6 9 12 10 7 7 8 8 8 8 8 8 8 7 7 7 7 8 8 8 8 9 11 14 16 18 20 22
Wind_Direction
234 249 264 262 259 257 240 233 240 262 276 284 288 291 289 282 268 272 270 270 269 266 268 260 263 249 250 250 251 250 245 239 237 238 232 241 251 244 251 239 230 225 219
230 239 251 267 266 268 255 240 242 250 267 287 291 290 289 292 285 282 281 278 270 262 256 257 261 265 264 265 262 259 260 256 248 237 239 245 257 231 238 240 231 222 217
228 236 249 263 275 267 270 267 258 256 258 261 275 284 285 277 284 292 295 284 271 275 262 262 262 258 257 257 261 260 262 262 262 253 246 244 245 228 227 241 232 223 225
232 234 249 272 278 281 269 268 263 264 277 280 275 276 279 273 281 294 308 303 278 268 265 266 260 256 251 249 251 255 258 260 258 257 257 256 249 236 225 229 225 221 229
235 238 264 265 283 288 286 279 276 275 275 272 273 281 277 262 267 289 307 323 277 269 272 263 261 261 255 251 251 255 257 261 263 260 253 235 279 254 222 220 223 230 236
240 292 282 284 280 273 266 253 252 265 276 280 282 277 269 256 261 275 287 297 305 293 263 249 262 265 264 262 259 257 258 257 257 252 247 254 229 216 224 216 228 238 250
238 299 302 288 275 282 277 279 269 273 269 260 264 268 265 245 252 256 267 291 300 310 287 243 244 244 254 261 262 261 262 261 259 257 254 250 241 231 234 231 227 254 242
277 261 271 279 301 283 276 277 288 312 310 251 266 264 251 250 243 248 246 262 290 306 293 245 245 257 241 247 258 263 264 260 256 254 253 246 233 226 229 237 242 240 248
267 276 284 283 279 287 294 288 296 301 309 310 297 240 242 227 238 240 240 244 269 294 298 240 239 243 251 238 242 250 248 264 254 251 247 241 237 231 231 234 241 248 252
270 282 284 285 284 287 288 289 293 293 291 293 310 282 239 225 226 234 236 234 249 269 275 269 241 237 262 238 238 247 247 248 240 237 240 242 241 240 242 246 249 252 249
265 263 269 276 274 278 283 284 284 284 282 287 286 276 213 224 221 228 229 233 238 250 259 262 248 232 232 239 231 238 245 244 242 240 237 238 242 248 252 252 251 253 254
260 266 269 272 274 272 274 275 275 279 287 284 265 232 219 213 215 223 225 229 236 247 251 266 263 246 230 235 244 238 241 241 242 248 250 247 248 247 251 258 263 261 255
272 275 274 273 267 266 273 275 278 285 292 282 255 228 224 216 213 218 224 229 232 242 249 258 264 258 246 237 242 243 246 241 241 256 252 255 254 254 256 256 253 256 260
277 273 272 273 270 270 272 273 279 286 287 279 258 225 211 213 207 210 223 231 234 241 247 255 262 256 248 250 241 236 249 252 243 246 253 258 259 260 260 257 237 240 263
275 272 269 269 271 272 272 273 277 277 270 283 220 201 221 209 200 206 217 222 237 239 244 255 262 256 250 245 243 239 247 254 251 256 258 253 251 251 254 256 247 261 281
273 271 273 268 277 268 265 263 266 256 248 240 213 214 213 212 209 219 227 223 233 243 247 256 258 260 262 259 249 244 249 252 253 262 265 266 266 262 257 258 261 261 266
275 283 280 255 258 263 257 256 257 251 250 250 240 225 205 202 210 221 216 215 231 239 252 258 260 258 258 261 257 252 251 258 264 267 262 264 262 262 259 269 264 265 264
340 332 306 272 252 250 241 255 257 254 256 255 246 240 205 210 211 212 209 222 231 238 243 251 249 246 244 238 241 245 249 253 257 260 260 258 260 260 264 267 273 272 275
349 337 334 329 274 249 265 255 260 250 267 257 243 233 211 205 203 207 216 217 216 216 225 228 236 237 239 241 243 244 249 255 259 262 265 268 268 270 273 276 277 277 279
334 331 346 319 325 261 274 313 303 274 262 265 251 237 203 200 212 208 202 199 191 192 198 200 211 232 240 257 257 256 261 267 268 265 266 269 271 272 274 277 279 280 281
321 317 330 344 356 324 311 286 335 306 287 233 239 231 205 225 209 187 183 191 184 197 204 221 167 271 283 274 269 273 276 272 269 272 276 274 274 276 279 278 278 281 282
304 304 298 300 25 53 54 306 298 296 246 246 278 210 163 162 193 179 161 150 192 198 231 256 287 293 290 279 277 277 276 275 276 276 273 274 279 284 286 288 288 289 291
292 291 270 271 256 245 81 94 54 98 191 152 156 166 200 213 179 149 163 173 209 193 229 252 273 289 288 282 275 275 281 290 295 297 297 298 300 301 298 297 296 295 297
287 278 257 249 245 228 226 246 205 145 149 139 157 103 140 155 161 182 167 201 222 238 264 270 271 277 277 265 263 277 286 292 295 297 297 299 297 292 292 297 304 309 311
271 256 231 215 211 214 219 221 223 209 170 135 103 127 170 171 187 164 225 268 260 269 267 261 249 252 253 265 276 281 283 283 283 283 285 287 293 304 313 318 320 319 317
259 233 205 184 138 143 137 154 206 222 187 196 163 160 174 240 201 243 258 253 246 242 239 245 250 259 265 268 271 272 276 284 290 295 302 308 311 314 314 313 311 312 311
Height
3136 3137 3137 3136 3136 3136 3136 3136 3136 3136 3137 3138 3138 3137 3136 3135 3135 3135 3134 3134 3134 3133 3133 3134 3134 3134 3134 3133 3133 3133 3133 3133 3135 3136 3136 3138 3139 3139 3141 3141 3141 3142 3143
3134 3134 3134 3133 3133 3133 3134 3134 3134 3134 3134 3136 3136 3135 3135 3135 3134 3134 3133 3131 3131 3131 3131 3131 3132 3132 3131 3131 3129 3129 3128 3128 3131 3132 3132 3133 3134 3133 3136 3138 3139 3140 3141
3130 3130 3131 3130 3130 3132 3132 3132 3132 3132 3132 3133 3134 3133 3133 3132 3132 3130 3128 3127 3126 3128 3128 3128 3128 3128 3129 3128 3128 3129 3129 3130 3130 3130 3130 3130 3131 3132 3133 3135 3136 3136 3138
3129 3128 3126 3127 3128 3131 3130 3130 3129 3129 3129 3129 3128 3129 3129 3129 3129 3127 3126 3124 3123 3124 3124 3123 3123 3124 3124 3125 3125 3126 3126 3126 3127 3129 3129 3129 3126 3126 3126 3130 3133 3134 3137
3126 3124 3124 3122 3126 3130 3130 3129 3128 3129 3129 3128 3127 3127 3126 3126 3127 3126 3124 3122 3122 3120 3121 3120 3119 3120 3120 3121 3121 3122 3123 3124 3125 3125 3125 3124 3121 3120 3123 3128 3129 3131 3133
3119 3122 3121 3119 3122 3125 3122 3120 3121 3125 3126 3126 3127 3124 3122 3124 3123 3123 3123 3120 3119 3117 3116 3116 3116 3116 3118 3120 3119 3118 3119 3120 3121 3122 3123 3122 3120 3120 3123 3126 3127 3129 3130
3104 3118 3121 3116 3116 3117 3118 3117 3112 3120 3121 3119 3118 3118 3119 3117 3119 3118 3118 3118 3116 3113 3111 3110 3110 3110 3113 3115 3116 3115 3115 3116 3117 3118 3119 3120 3120 3120 3121 3123 3125 3127 3127
3109 3116 3114 3112 3113 3114 3111 3111 3108 3108 3102 3111 3111 3111 3109 3111 3110 3111 3111 3112 3113 3110 3108 3106 3107 3108 3108 3110 3111 3111 3112 3112 3113 3114 3116 3116 3116 3116 3117 3119 3121 3122 3122
3107 3107 3107 3105 3106 3105 3103 3103 3103 3101 3100 3096 3094 3096 3094 3097 3102 3104 3105 3106 3108 3107 3105 3103 3105 3104 3104 3105 3106 3107 3108 3109 3110 3111 3113 3113 3114 3113 3114 3116 3117 3118 3117
3099 3100 3100 3099 3100 3098 3097 3097 3094 3092 3091 3089 3083 3078 3083 3088 3092 3097 3099 3100 3102 3101 3101 3101 3102 3101 3101 3101 3102 3103 3104 3106 3107 3108 3110 3111 3111 3110 3111 3112 3113 3114 3114
3096 3095 3096 3094 3093 3094 3090 3090 3084 3080 3079 3075 3072 3064 3068 3082 3085 3088 3091 3095 3096 3096 3095 3097 3098 3098 3097 3097 3098 3100 3100 3101 3102 3104 3105 3106 3107 3107 3107 3108 3109 3109 3110
3089 3087 3087 3086 3084 3081 3081 3079 3074 3071 3068 3065 3064 3066 3066 3071 3077 3081 3085 3089 3092 3092 3091 3093 3092 3092 3094 3094 3095 3096 3096 3097 3099 3101 3101 3101 3102 3101 3102 3104 3105 3105 3105
3079 3076 3076 3075 3075 3074 3069 3066 3065 3063 3060 3055 3051 3053 3059 3065 3069 3074 3079 3083 3085 3086 3087 3088 3087 3088 3089 3089 3089 3090 3092 3092 3094 3096 3096 3097 3098 3098 3098 3100 3100 3101 3102
3068 3066 3063 3061 3061 3060 3058 3057 3055 3053 3051 3047 3038 3041 3047 3054 3060 3067 3072 3077 3078 3081 3082 3083 3083 3083 3084 3085 3085 3086 3087 3088 3090 3091 3092 3093 3094 3094 3095 3096 3097 3098 3100
3054 3052 3050 3047 3048 3049 3049 3048 3047 3048 3046 3042 3036 3039 3041 3046 3055 3060 3064 3068 3072 3075 3078 3079 3078 3078 3079 3079 3079 3082 3082 3083 3085 3086 3087 3088 3088 3088 3089 3091 3092 3092 3093
3044 3042 3040 3040 3040 3041 3041 3039 3041 3043 3040 3041 3038 3039 3041 3039 3045 3052 3057 3063 3068 3071 3073 3074 3074 3074 3075 3075 3075 3076 3078 3079 3079 3080 3081 3081 3081 3082 3082 3083 3084 3085 3084
3039 3038 3036 3037 3035 3035 3037 3035 3037 3038 3037 3038 3036 3038 3038 3040 3043 3047 3051 3058 3063 3066 3068 3070 3070 3070 3070 3070 3070 3072 3074 3073 3075 3074 3074 3075 3075 3073 3074 3075 3075 3076 3076
3036 3033 3030 3028 3029 3029 3030 3031 3032 3031 3033 3033 3033 3032 3032 3037 3039 3044 3049 3054 3058 3061 3063 3064 3065 3065 3066 3065 3066 3067 3068 3068 3069 3068 3068 3068 3067 3067 3067 3066 3066 3067 3066
3032 3029 3025 3024 3025 3025 3024 3027 3028 3027 3026 3028 3030 3030 3030 3032 3035 3039 3045 3050 3053 3057 3058 3059 3061 3061 3062 3063 3062 3064 3064 3065 3065 3064 3064 3064 3062 3062 3061 3060 3060 3060 3060
3031 3029 3027 3026 3023 3023 3020 3022 3023 3021 3020 3022 3023 3021 3018 3022 3026 3032 3042 3047 3050 3052 3054 3055 3057 3058 3059 3058 3058 3059 3061 3061 3061 3061 3061 3060 3058 3057 3056 3055 3054 3054 3053
3030 3028 3024 3024 3023 3022 3019 3020 3020 3019 3018 3020 3019 3021 3019 3023 3026 3031 3037 3042 3046 3048 3049 3051 3053 3054 3055 3054 3054 3054 3055 3055 3054 3055 3056 3055 3054 3052 3051 3049 3049 3050 3047
3026 3026 3024 3024 3023 3023 3021 3020 3018 3017 3017 3019 3019 3021 3023 3026 3030 3033 3036 3040 3044 3046 3047 3048 3049 3050 3050 3049 3049 3049 3049 3049 3050 3049 3050 3050 3050 3048 3047 3045 3044 3042 3042
3023 3023 3022 3023 3022 3022 3022 3021 3020 3020 3020 3020 3021 3023 3025 3027 3030 3033 3034 3038 3040 3043 3045 3046 3046 3046 3046 3044 3045 3046 3045 3044 3045 3044 3045 3045 3045 3044 3043 3041 3041 3040 3037
3022 3020 3019 3020 3021 3021 3022 3022 3023 3022 3023 3021 3022 3024 3028 3030 3032 3034 3036 3039 3042 3042 3043 3042 3042 3040 3040 3042 3043 3042 3041 3040 3040 3040 3040 3039 3039 3039 3038 3037 3034 3035 3032
3021 3020 3019 3019 3020 3021 3022 3023 3024 3024 3023 3022 3023 3025 3027 3028 3031 3032 3035 3035 3038 3038 3038 3038 3037 3036 3037 3039 3038 3037 3036 3036 3037 3037 3037 3036 3035 3035 3034 3032 3029 3027 3027
3020 3019 3019 3019 3020 3021 3022 3022 3023 3023 3023 3023 3024 3025 3027 3027 3030 3033 3032 3031 3033 3033 3034 3036 3035 3035 3034 3033 3033 3032 3034 3034 3035 3035 3032 3033 3032 3030 3028 3026 3024 3021 3020